Regional Weather Roundup
Issued by NWS

Home | Current Version | Previous Version | Graphics & Text | Print | Product List | Glossary On
Versions: 1 2 3 4 5 6 7 8 9 10 11 12 13 14 15 16 17 18 19 20 21 22 23 24 25 26 27 28 29 30 31 32 33 34 35 36 37 38 39 40 41 42 43 44 45 46 47 48 49 50
000
ASUS43 KFSD 260410
RWRSD

WEATHER ROUNDUP FOR SOUTH DAKOTA
NATIONAL WEATHER SERVICE SIOUX FALLS SD
1100 PM CDT MON SEP 25 2017

NOTE: "FAIR" INDICATES FEW OR NO CLOUDS BELOW 12,000 FEET WITH NO
SIGNIFICANT WEATHER AND/OR OBSTRUCTIONS TO VISIBILITY.


SDZ001>005-009-010-012>017-260500-
NORTHWEST AND NORTH CENTRAL SOUTH DAKOTA

CITY           SKY/WX    TMP DP  RH WIND       PRES   REMARKS
BUFFALO          N/A     47  44  90 SE3       30.03S
FAITH            N/A     46  43  89 E6        30.11S
MOBRIDGE       CLOUDY    50  44  80 NE5       30.09F
$$

SDZ012>016-024>037-041>051-057-063-072>074-260500-
SOUTHWEST AND SOUTH CENTRAL SOUTH DAKOTA

CITY           SKY/WX    TMP DP  RH WIND       PRES   REMARKS
RAPID CTY ARPT CLOUDY    48  43  81 S6        30.12R
PIERRE         CLOUDY    50  45  83 E3        30.12R
CUSTER         CLOUDY    40  37  89 CALM      30.11S
ELLSWORTH AFB  CLOUDY    49  45  87 SE7       30.11
PHILIP         PTCLDY    43  42  97 E5        30.12R
PINE RIDGE     CLEAR     40  39  97 E5        30.11S
SPEARFISH      CLOUDY    45  45 100 CALM      30.11S
WINNER         CLOUDY    50  48  93 N8        30.11R
$$

SDZ004>011-016>023-039-040-260500-
NORTHEAST SOUTH DAKOTA

CITY           SKY/WX    TMP DP  RH WIND       PRES   REMARKS
ABERDEEN       LGT RAIN  49  47  93 NE6       30.11R
WATERTOWN      RAIN      48  48 100 NW9       30.04S FOG
BROOKINGS      LGT RAIN  50  49  96 NW10      30.03F FOG
SISSETON         N/A     50  50 100 NW8       30.05F
$$

SDZ017-020-022-023-036>040-048>070-260500-
SOUTHEAST SOUTH DAKOTA

CITY           SKY/WX    TMP DP  RH WIND       PRES   REMARKS
SIOUX FALLS    DRIZZLE   53  52  96 N8        30.01S
HURON          RAIN      49  48  97 N9        30.08R FOG
CHAMBERLAIN    RAIN      50  50 100 NW6       30.11R
MITCHELL       CLOUDY    51  50  96 N9        30.07F
YANKTON        LGT RAIN  52  51  97 NW12      30.02F
$$

ABBREVIATIONS USED IN REMARKS
   TC - TEMPERATURE IN CELSIUS
  WCI - WIND CHILL INDEX
   HX - HEAT INDEX
  VSB - VISIBILITY





USA.gov is the U.S. government's official web portal to all federal, state and local government web resources and services.